Location: Boiro
(42.6475°N, 8.8834°W)
Time: 21:46:33
(UTC+01:00)

Vanguard 1 - Pass Details

Date: 30 November 2021
Orbit: 652 x 3830 km, 34.2° (Epoch: 19 January)

Event Time Altitude Azimuth Distance (km) Brightness Sun altitude
Rises 00:02:09 0° 202° (SSW) 7,117 14.3 -62.9°
Enters shadow 00:03:17 - 201° (SSW) 6,964 14.3 -63.1°
Reaches altitude 10° 00:07:29 10° 193° (SSW) 6,434 - -63.6°
Maximum altitude 00:25:26 32° 140° (SE) 5,250 - -65.7°
Drops below altitude 10° 00:43:06 10° 87° (E) 6,414 - -67.3°
Exits shadow 00:45:06 - 83° (E) 6,670 14.2 -67.5°
Sets 00:48:15 0° 78° (ENE) 7,104 14.4 -67.7°
